Location: Dal�� Lhota
(48.7500°N, 14.0167°E)
Time: 00:26:39
(UTC+00:00)

Vanguard 3 - Pass Details

Date: 09 August 2021
Orbit: 510 x 3260 km, 33.3° (Epoch: 19 September)

Event Time Altitude Azimuth Distance (km) Brightness Sun altitude
Rises 12:38:39 0° 185° (S) 4,002 11.2 52.2°
Reaches altitude 10° 12:43:04 10° 159° (SSE) 3,561 10.8 51.8°
Maximum altitude 12:47:06 13° 133° (SE) 3,747 10.7 51.4°
Drops below altitude 10° 12:52:02 10° 109° (ESE) 4,550 10.9 50.9°
Sets 12:59:27 0° 88° (E) 6,236 11.4 50.0°
